Regional Weather Roundup
Issued by NWS

Home | Current Version | Previous Version | Text Only | Print | Product List | Glossary On
Versions: 1 2 3 4 5 6 7 8 9 10 11 12 13 14 15 16 17 18 19 20 21 22 23 24 25 26 27 28 29 30 31 32 33 34 35 36 37 38 39 40 41 42 43 44 45 46 47 48 49 50
000
ASUS44 KMEG 230710
RWRTN
TENNESSEE HOURLY STATE WEATHER ROUNDUP
NATIONAL WEATHER SERVICE MEMPHIS TN
100 AM CST SUN NOV 23 2014

TNZ002-004-019-021-049-052-054-088>092-230800-
WEST TENNESSEE

CITY           SKY/WX    TMP DP  RH WIND       PRES   REMARKS
MEMPHIS INTL   MOCLDY    59  50  72 SE10      29.90F
NWS MEMPHIS      N/A     58 N/A N/A MISG        N/A
JACKSON        MOCLDY    59  49  69 SE8       29.94F
DYERSBURG      CLEAR     55  39  54 SE9G17    29.93F
UNION CITY     PTCLDY    54  46  76 SE8       29.92F
PARIS            N/A     48  43  81 SE7       29.96F
HUNTINGDON     MOCLDY    53  44  71 SE5       29.96F
LEXINGTON      CLOUDY    57  46  67 SE8       29.96F
SAVANNAH       CLOUDY    57  48  72 SE8       29.97F
$$

TNZ008-025-027-028-033-062-065-066-230800-
NORTH MIDDLE TENNESSEE

CITY           SKY/WX    TMP DP  RH WIND       PRES   REMARKS
NASHVILLE      CLOUDY    54  37  52 SE8       30.03F
CLARKSVILLE    CLEAR     53  40  61 SE10      29.99F
SMYRNA         CLOUDY    55  37  50 SE9       30.05F
COOKEVILLE     CLOUDY    55  37  50 S8        30.08S
CROSSVILLE     CLOUDY    54  36  50 S7        30.11F
$$

TNZ061-075-076-078-094-096-097-230800-
SOUTH MIDDLE TENNESSEE

CITY           SKY/WX    TMP DP  RH WIND       PRES   REMARKS
FAYETTEVILLE   CLOUDY    54  37  54 N20G35    30.05F
TULLAHOMA      MOCLDY    54  36  50 SE13      30.06F
WINCHESTER     MOCLDY    54  39  58 S12       30.08F
MCMINNVILLE    MOCLDY    54  37  54 CALM      30.06F
SHELBYVILLE    MOCLDY    55  39  54 SE7       30.06F
$$

TNZ017-018-042-046-047-230800-
NORTHEAST TENNESSEE

CITY           SKY/WX    TMP DP  RH WIND       PRES   REMARKS
TRI CITIES     MOCLDY    34  27  75 CALM      30.18F
ELIZABETHTON   SUNNY     37  25  60 NE5       30.19F WCI  34
$$

TNZ012-013-036-069-073-074-230800-
CENTRAL EAST TENNESSEE

CITY           SKY/WX    TMP DP  RH WIND       PRES   REMARKS
KNOXVILLE      MOCLDY    38  32  79 NE3       30.14F
OAK RIDGE      MOCLDY    46  35  65 S3        30.15F
GATLINBURG     SUNNY     36  28  75 CALM      30.14F
MORRISTOWN     SUNNY     41  28  60 NE3       30.15S
$$

TNZ083-085-099-230800-
SOUTHEAST TENNESSEE

CITY           SKY/WX    TMP DP  RH WIND       PRES   REMARKS
CHATTANOOGA    CLOUDY    56  31  38 SE6       30.13F
$$

SKY/WX REPORTED AS FAIR MEANS FEW OR NO CLOUDS BELOW
12 THOUSAND FEET.



USA.gov is the U.S. government's official web portal to all federal, state and local government web resources and services.